Weather History for Altus, OK

Change the Weather History Date:

Thursday, February 7, 2013

  Actual Average (KLTS) Record (KLTS)
Temperature  
Mean Temperature 48 °F -  
Max Temperature 60 °F 52 °F 28 °F (2014)
Min Temperature 35 °F 29 °F 15 °F (2014)
Degree Days  
Heating Degree Days 18    
Moisture  
Dew Point 43 °F    
Average Humidity 70    
Maximum Humidity 100    
Minimum Humidity 31    
Precipitation  
Precipitation 0.00 in - - ()
Sea Level Pressure  
Sea Level Pressure 29.96 in    
Wind  
Wind Speed 16 mph (NNE)    
Max Wind Speed 31 mph    
Max Gust Speed 39 mph    
Visibility 8 miles    
Events Fog    
Averages and records for this station are not official NWS values.
T = Trace of Precipitation, MM = Missing Value Source: NWS Daily Summary

Daily Weather History Graph

Daily Weather History Graph

Search for Another Location

Airport:

Trip Planner

Search our weather history database for the weather conditions in past years. The results will help you decide how hot, cold, wet, or windy it might be!

Date:

Astronomy

Feb. 07, 2013 Rise Set
Actual Time 7:30 AM CST 6:13 PM CST
Civil Twilight 7:04 AM CST 6:39 PM CST
Nautical Twilight 6:34 AM CST 7:09 PM CST
Astronomical Twilight 6:04 AM CST 7:38 PM CST
Moon 5:07 AM CST (2/7) 3:42 PM CST (2/7)
Length of Visible Light 11h 34m
Length of Day
10h 42m
Waning Crescent, 9% of the Moon is Illuminated
Feb 7
Waning Crescent
Feb 10
New
Feb 17
First Quarter
Feb 25
Full
Mar 4
Last Quarter

Hourly Weather History & Observations

Time (CST) Temp. Windchill Dew Point Humidity Pressure Visibility Wind Dir Wind Speed Gust Speed Precip Events Conditions
12:15 AM 57.2 °F - 53.6 °F 88% 29.82 in 10.0 mi SE 17.3 mph 24.2 mph N/A   Scattered Clouds
12:35 AM 57.2 °F - 53.6 °F 88% 29.81 in 10.0 mi SE 17.3 mph 21.9 mph N/A   Scattered Clouds
12:55 AM 57.2 °F - 53.6 °F 88% 29.81 in 10.0 mi SE 16.1 mph - N/A   Mostly Cloudy
1:15 AM 59.0 °F - 53.6 °F 82% 29.81 in 10.0 mi SE 19.6 mph - N/A   Overcast
1:35 AM 59.0 °F - 55.4 °F 88% 29.80 in 10.0 mi SE 19.6 mph 23.0 mph N/A   Overcast
1:55 AM 59.0 °F - 55.4 °F 88% 29.79 in 10.0 mi SE 18.4 mph 24.2 mph N/A   Overcast
2:15 AM 59.0 °F - 55.4 °F 88% 29.80 in 10.0 mi SSE 15.0 mph - N/A   Overcast
2:35 AM 59.0 °F - 55.4 °F 88% 29.80 in 10.0 mi SSE 15.0 mph - N/A   Overcast
2:55 AM 59.0 °F - 55.4 °F 88% 29.79 in 10.0 mi SSE 17.3 mph - N/A   Overcast
3:15 AM 59.0 °F - 55.4 °F 88% 29.79 in 10.0 mi SSE 16.1 mph - N/A   Overcast
3:35 AM 59.0 °F - 55.4 °F 88% 29.78 in 10.0 mi SSE 16.1 mph - N/A   Overcast
3:55 AM 59.0 °F - 53.6 °F 82% 29.78 in 10.0 mi SSE 15.0 mph - N/A   Overcast
4:15 AM 57.2 °F - 53.6 °F 88% 29.76 in 7.0 mi SE 12.7 mph - N/A   Overcast
4:35 AM 55.4 °F - 53.6 °F 94% 29.76 in 5.0 mi SE 10.4 mph - N/A   Overcast
4:55 AM 53.6 °F - 51.8 °F 94% 29.76 in 4.0 mi SE 9.2 mph - N/A   Overcast
5:15 AM 53.6 °F - 51.8 °F 94% 29.76 in 3.0 mi SE 10.4 mph - N/A   Overcast
5:35 AM 51.8 °F - 51.8 °F 100% 29.76 in 1.8 mi ESE 6.9 mph - N/A   Scattered Clouds
5:55 AM 51.8 °F - 50.0 °F 94% 29.77 in 0.2 mi ESE 6.9 mph - N/A Fog Fog
6:15 AM 51.8 °F - 50.0 °F 94% 29.77 in 0.2 mi ESE 5.8 mph - N/A Fog Fog
6:35 AM 50.0 °F - 48.2 °F 94% 29.77 in 0.2 mi ESE 5.8 mph - N/A Fog Fog
6:55 AM 50.0 °F - 48.2 °F 94% 29.78 in 0.5 mi ESE 5.8 mph - N/A Fog Fog
7:15 AM 46.4 °F 44.3 °F 46.4 °F 100% 29.78 in 0.2 mi SE 4.6 mph - N/A Fog Fog
7:35 AM 46.4 °F - 46.4 °F 100% 29.79 in 0.8 mi Calm Calm - N/A   Mist
7:55 AM 46.4 °F 43.5 °F 44.6 °F 93% 29.81 in 7.0 mi WNW 5.8 mph - N/A   Clear
8:35 AM 50.0 °F - 50.0 °F 100% 29.83 in 7.0 mi North 9.2 mph - N/A   Scattered Clouds
8:55 AM 53.6 °F - 51.8 °F 94% 29.85 in 10.0 mi NNW 10.4 mph - N/A   Clear
9:15 AM 55.4 °F - 53.6 °F 94% 29.86 in 10.0 mi NNW 11.5 mph - N/A   Mostly Cloudy
9:35 AM 59.0 °F - 53.6 °F 82% 29.86 in 10.0 mi NNW 17.3 mph - N/A   Mostly Cloudy
9:55 AM 59.0 °F - 51.8 °F 77% 29.87 in 10.0 mi NNW 20.7 mph 26.5 mph N/A   Overcast
10:15 AM 59.0 °F - 50.0 °F 72% 29.88 in 7.0 mi North 25.3 mph 35.7 mph N/A   Overcast
10:35 AM 59.0 °F - 50.0 °F 72% 29.90 in 5.0 mi North 27.6 mph 39.1 mph N/A   Haze
10:55 AM 57.2 °F - 50.0 °F 77% 29.91 in 7.0 mi North 31.1 mph 39.1 mph N/A   Overcast
11:15 AM 60.8 °F - 50.0 °F 68% 29.92 in 10.0 mi North 27.6 mph 35.7 mph N/A   Overcast
11:35 AM 60.8 °F - 48.2 °F 63% 29.93 in 10.0 mi North 25.3 mph 38.0 mph N/A   Mostly Cloudy
11:55 AM 60.8 °F - 48.2 °F 63% 29.95 in 10.0 mi North 26.5 mph 31.1 mph N/A   Overcast
12:15 PM 59.0 °F - 46.4 °F 63% 29.97 in 10.0 mi North 27.6 mph 34.5 mph N/A   Overcast
12:35 PM 60.8 °F - 46.4 °F 59% 29.97 in 10.0 mi North 23.0 mph 33.4 mph N/A   Overcast
12:55 PM 60.8 °F - 44.6 °F 55% 29.98 in 10.0 mi North 26.5 mph 33.4 mph N/A   Scattered Clouds
1:15 PM 60.8 °F - 44.6 °F 55% 29.99 in 10.0 mi North 21.9 mph 28.8 mph N/A   Scattered Clouds
1:35 PM 60.8 °F - 42.8 °F 52% 29.99 in 10.0 mi North 28.8 mph 32.2 mph N/A   Scattered Clouds
1:55 PM 60.8 °F - 42.8 °F 52% 29.99 in 10.0 mi North 25.3 mph 34.5 mph N/A   Scattered Clouds
2:15 PM 57.2 °F - 41.0 °F 55% 30.00 in 10.0 mi NNW 26.5 mph 29.9 mph N/A   Scattered Clouds
2:35 PM 55.4 °F - 41.0 °F 58% 30.01 in 10.0 mi North 24.2 mph 31.1 mph N/A   Scattered Clouds
2:55 PM 59.0 °F - 41.0 °F 51% 30.02 in 10.0 mi North 23.0 mph 28.8 mph N/A   Clear
3:15 PM 59.0 °F - 39.2 °F 48% 30.03 in 10.0 mi North 23.0 mph 27.6 mph N/A   Clear
3:35 PM 60.8 °F - 39.2 °F 45% 30.03 in 10.0 mi North 24.2 mph 31.1 mph N/A   Clear
3:55 PM 60.8 °F - 39.2 °F 45% 30.04 in 10.0 mi North 23.0 mph 29.9 mph N/A   Clear
4:15 PM 59.0 °F - 39.2 °F 48% 30.04 in 10.0 mi North 24.2 mph 31.1 mph N/A   Clear
4:35 PM 59.0 °F - 39.2 °F 48% 30.05 in 10.0 mi North 24.2 mph 29.9 mph N/A   Clear
4:55 PM 59.0 °F - 35.6 °F 42% 30.06 in 10.0 mi North 19.6 mph 28.8 mph N/A   Clear
5:15 PM 59.0 °F - 32.0 °F 36% 30.07 in 10.0 mi North 21.9 mph 26.5 mph N/A   Clear
5:35 PM 57.2 °F - 26.6 °F 31% 30.08 in 10.0 mi NNE 20.7 mph 26.5 mph N/A   Clear
5:55 PM 55.4 °F - 26.6 °F 33% 30.09 in 10.0 mi NNE 15.0 mph 19.6 mph N/A   Clear
6:15 PM 53.6 °F - 26.6 °F 35% 30.10 in 10.0 mi NNE 12.7 mph - N/A   Clear
6:35 PM 51.8 °F - 28.4 °F 41% 30.11 in 10.0 mi NNE 9.2 mph - N/A   Clear
6:55 PM 50.0 °F - 28.4 °F 43% 30.11 in 10.0 mi NNE 6.9 mph - N/A   Clear
7:15 PM 50.0 °F - 28.4 °F 43% 30.13 in 10.0 mi NNE 5.8 mph - N/A   Clear
7:35 PM 50.0 °F - 28.4 °F 43% 30.14 in 10.0 mi North 5.8 mph - N/A   Clear
7:55 PM 44.6 °F 40.7 °F 28.4 °F 53% 30.15 in 10.0 mi NNW 6.9 mph - N/A   Clear
8:15 PM 42.8 °F 40.1 °F 28.4 °F 57% 30.16 in 10.0 mi North 4.6 mph - N/A   Clear
8:35 PM 44.6 °F 41.4 °F 28.4 °F 53% 30.17 in 10.0 mi North 5.8 mph - N/A   Clear
8:55 PM 41.0 °F 35.8 °F 28.4 °F 61% 30.18 in 10.0 mi North 8.1 mph - N/A   Clear
9:15 PM 39.2 °F 34.2 °F 28.4 °F 65% 30.19 in 10.0 mi NNW 6.9 mph - N/A   Clear
9:35 PM 37.4 °F 31.4 °F 28.4 °F 70% 30.19 in 10.0 mi North 8.1 mph - N/A   Clear
9:55 PM 37.4 °F 32.8 °F 28.4 °F 70% 30.20 in 10.0 mi North 5.8 mph - N/A   Clear
10:15 PM 35.6 °F 29.9 °F 28.4 °F 75% 30.21 in 10.0 mi North 6.9 mph - N/A   Clear
10:55 PM 37.4 °F 30.3 °F 30.2 °F 75% 30.22 in 10.0 mi North 10.4 mph - N/A   Clear
11:15 PM 35.6 °F 28.6 °F 28.4 °F 75% 30.23 in 10.0 mi North 9.2 mph - N/A   Clear
11:35 PM 35.6 °F 28.6 °F 28.4 °F 75% 30.23 in 10.0 mi North 9.2 mph - N/A   Clear
11:55 PM 37.4 °F 31.4 °F 28.4 °F 70% 30.23 in 10.0 mi North 8.1 mph - N/A   Clear